Location: Artiguedieu
(43.5000°N, 0.5454°E)
Time: 19:01:40
(UTC+00:00)

Explorer 7 - Pass Details

Date: 01 August 2021
Orbit: 484 x 676 km, 50.3° (Epoch: 18 September)

Event Time Altitude Azimuth Distance (km) Brightness Sun altitude
Rises 03:33:49 0° 193° (SSW) 2,530 - -12.0°
Exits shadow 03:35:43 - 180° (S) 1,911 9.2 -11.8°
Reaches altitude 10° 03:36:38 10° 170° (S) 1,663 9.0 -11.6°
Maximum altitude 03:38:54 15° 132° (SE) 1,373 9.0 -11.3°
Drops below altitude 10° 03:41:13 10° 95° (E) 1,699 10.0 -11.0°
Sets 03:44:07 0° 73° (ENE) 2,617 11.8 -10.6°
